CCA147 ZUCK-ZJSY

Flight info

Callsign CCA147
Flight time N/A
Altitude 411
Route VILUS W180 ELBAV W181 DUDIT A599 LBN W159 BHY W70 NYB G221 WL
Aircraft A359/H-SDE2E3GHIJ3J4J5LM1ORWXY/LB1D1

Departure

Time 2026-04-30 11:46
Airport Chongqing Jiangbei International Airport (ZUCK)

Arrival

Time N/A
Airport Sanya Phoenix International Airport (ZJSY)
Time Latitude Longitude Altitude Speed Heading
2026-04-30 11:15 29.71319 106.65511 1350 ft 0 kts 276°
2026-04-30 11:36 29.71319 106.65512 1350 ft 2 kts 276°
2026-04-30 11:36 29.71315 106.65541 1351 ft 4 kts 282°
2026-04-30 11:36 29.71308 106.65571 1349 ft 4 kts 290°
2026-04-30 11:36 29.71298 106.65600 1350 ft 4 kts 298°
2026-04-30 11:37 29.71283 106.65626 1349 ft 4 kts 308°
2026-04-30 11:37 29.71265 106.65649 1351 ft 4 kts 319°
2026-04-30 11:37 29.71244 106.65667 1350 ft 4 kts 334°
2026-04-30 11:37 29.71219 106.65676 1349 ft 4 kts 359°
2026-04-30 11:38 29.71199 106.65672 1351 ft 0 kts 36°
2026-04-30 11:41 29.71203 106.65675 1352 ft 2 kts 36°
2026-04-30 11:42 29.71224 106.65693 1348 ft 6 kts 36°
2026-04-30 11:42 29.71271 106.65728 1350 ft 10 kts 33°
2026-04-30 11:42 29.71313 106.65761 1350 ft 7 kts 35°
2026-04-30 11:42 29.71360 106.65799 1351 ft 10 kts 35°
2026-04-30 11:43 29.71432 106.65835 1350 ft 12 kts 16°
2026-04-30 11:43 29.71496 106.65865 1348 ft 8 kts 46°
2026-04-30 11:43 29.71501 106.65935 1348 ft 10 kts 101°
2026-04-30 11:43 29.71483 106.66028 1347 ft 13 kts 108°
2026-04-30 11:44 29.71462 106.66106 1348 ft 1 kts 107°
2026-04-30 11:44 29.71460 106.66116 1349 ft 1 kts 104°
2026-04-30 11:44 29.71460 106.66128 1349 ft 2 kts 91°
2026-04-30 11:44 29.71468 106.66149 1347 ft 4 kts 52°
2026-04-30 11:45 29.71501 106.66165 1348 ft 7 kts 16°
2026-04-30 11:45 29.71597 106.66198 1345 ft 37 kts 17°
2026-04-30 11:45 29.72085 106.66368 1341 ft 107 kts 17°
2026-04-30 11:45 29.72991 106.66683 1334 ft 163 kts 17°
2026-04-30 11:46 29.74209 106.67137 1522 ft 199 kts 19°
2026-04-30 11:46 29.75568 106.67659 2143 ft 212 kts 20°
2026-04-30 11:46 29.76978 106.68323 2710 ft 228 kts 27°
2026-04-30 11:46 29.78444 106.69246 3019 ft 252 kts 33°
2026-04-30 11:47 29.79973 106.70343 3563 ft 264 kts 35°
2026-04-30 11:47 29.81546 106.71482 4252 ft 270 kts 34°
2026-04-30 11:47 29.83149 106.72635 4957 ft 274 kts 34°
2026-04-30 11:47 29.84699 106.73919 5721 ft 275 kts 45°
2026-04-30 11:48 29.85773 106.75720 6477 ft 274 kts 71°
2026-04-30 11:48 29.86064 106.77874 7168 ft 275 kts 97°
2026-04-30 11:48 29.85662 106.80004 7878 ft 278 kts 109°
2026-04-30 11:48 29.85079 106.82143 8638 ft 283 kts 110°
2026-04-30 11:49 29.84475 106.84328 9392 ft 289 kts 111°
2026-04-30 11:49 29.83867 106.86562 10094 ft 295 kts 110°
2026-04-30 11:49 29.83241 106.88879 10482 ft 313 kts 110°
2026-04-30 11:49 29.82580 106.91347 10822 ft 331 kts 110°
2026-04-30 11:50 29.81887 106.93948 11159 ft 349 kts 109°
2026-04-30 11:50 29.81156 106.96680 11473 ft 364 kts 110°
2026-04-30 11:50 29.80096 106.99338 11923 ft 368 kts 126°
2026-04-30 11:50 29.78298 107.01421 12458 ft 368 kts 148°
2026-04-30 11:51 29.75959 107.02561 13000 ft 369 kts 170°
2026-04-30 11:51 29.73398 107.02600 13524 ft 370 kts 192°
2026-04-30 11:51 29.71006 107.01515 14029 ft 372 kts 213°
2026-04-30 11:51 29.68960 106.99695 14521 ft 375 kts 217°
2026-04-30 11:52 29.66639 106.98313 15042 ft 379 kts 201°
2026-04-30 11:52 29.64124 106.97369 15550 ft 381 kts 198°
2026-04-30 11:52 29.61559 106.96559 16092 ft 384 kts 193°
2026-04-30 11:52 29.58883 106.96227 16597 ft 389 kts 184°
2026-04-30 11:53 29.56167 106.96175 17038 ft 393 kts 183°
2026-04-30 11:53 29.53412 106.96159 17538 ft 396 kts 183°
2026-04-30 11:53 29.50650 106.96138 18050 ft 399 kts 183°
2026-04-30 11:53 29.47871 106.96112 18478 ft 401 kts 183°
2026-04-30 11:54 29.45061 106.96081 18894 ft 404 kts 183°
2026-04-30 11:54 29.42240 106.96048 19319 ft 407 kts 183°
2026-04-30 11:54 29.39402 106.96016 19756 ft 409 kts 183°
2026-04-30 11:54 29.36544 106.95982 20176 ft 412 kts 183°
2026-04-30 11:55 29.33674 106.95948 20609 ft 415 kts 183°
2026-04-30 11:55 29.30772 106.95913 21046 ft 417 kts 183°
2026-04-30 11:55 29.27858 106.95879 21483 ft 421 kts 183°
2026-04-30 11:55 29.24917 106.95843 21895 ft 424 kts 183°
2026-04-30 11:56 29.21962 106.95807 22326 ft 427 kts 183°
2026-04-30 11:56 29.18982 106.95772 22765 ft 430 kts 183°
2026-04-30 11:56 29.15978 106.95735 23193 ft 433 kts 183°
2026-04-30 11:56 29.14999 106.95724 23312 ft 434 kts 183°